HULIANWANG DIGUI 6G

Last updated on Thu Aug 14 2025 00:02:07 GMT+0000 (Coordinated Universal Time)

1 65049U 25162G 25224.73029138 .00000006 00000+0 95697-4 0 9993 2 65049 50.0084 320.4183 0007002 323.1795 36.8629 14.06276194 1895
UTC large
Height (km)
Speed (km/s)
/
Latitude / Longitude
Inclination (degrees)
Orbital Period (minutes)
Azimuth
Elevation
Range (km)
Doppler Factor

Next 0 passes for location: London (51.5072 / 0.1276)

Sorry there are no passes over London.
HULIANWANG DIGUI 6G